GW2166 Weather Reports


Display with metric or nautical units.
time (UTC)temp
F
wind
direction
speed
MPH
gust
MPH
rain 1hr
in
rain 24hr
in
rain mn
in
humidity
%
barometer
mb
20260904173428 94 240 6.0 13.0 0.00 0.00 0.00 54 1013.6
20260904171928 93 210 6.0 15.0 0.00 0.00 0.00 55 1013.7
20260904171428 93 159 9.0 16.0 0.00 0.00 0.00 53 1013.9
20260904170928 93 257 8.0 16.0 0.00 0.00 0.00 55 1013.8
20260904170428 93 159 6.0 13.0 0.00 0.00 0.00 54 1013.8
20260904165928 93 219 7.0 13.0 0.00 0.00 0.00 55 1013.9
20260904165427 92 217 6.0 17.0 0.00 0.00 0.00 56 1014.0
20260904163927 92 237 6.0 17.0 0.00 0.00 0.00 56 1014.0
20260904162927 91 224 10.0 21.0 0.00 0.00 0.00 55 1014.1
20260904162427 91 223 9.0 21.0 0.00 0.00 0.00 58 1014.2
20260904161927 91 197 9.0 16.0 0.00 0.00 0.00 57 1014.2
20260904161427 91 216 9.0 16.0 0.00 0.00 0.00 57 1014.2
20260904160926 90 192 8.0 16.0 0.00 0.00 0.00 58 1014.1
20260904160426 90 209 8.0 14.0 0.00 0.00 0.00 60 1014.1
20260904155927 90 243 6.0 15.0 0.00 0.00 0.00 60 1014.1
20260904155427 89 203 5.0 19.0 0.00 0.00 0.00 62 1014.1
20260904154426 89 179 7.0 12.0 0.00 0.00 0.00 62 1014.1
20260904153426 88 173 9.0 15.0 0.00 0.00 0.00 65 1014.2
20260904152925 88 202 7.0 13.0 0.00 0.00 0.00 64 1014.2
20260904152426 87 240 7.0 15.0 0.00 0.00 0.00 66 1014.3
20260904151925 86 199 8.0 15.0 0.00 0.00 0.00 66 1014.2
20260904151426 86 183 10.0 18.0 0.00 0.00 0.00 67 1014.2
20260904150925 86 219 9.0 18.0 0.00 0.00 0.00 66 1014.3
20260904150425 86 183 4.0 15.0 0.00 0.00 0.00 68 1014.2
20260904145925 85 197 7.0 15.0 0.00 0.00 0.00 68 1014.2
20260904145424 85 212 7.0 13.0 0.00 0.00 0.00 69 1014.2
20260904144925 85 175 6.0 13.0 0.00 0.00 0.00 69 1014.1
20260904144425 85 147 5.0 12.0 0.00 0.00 0.00 70 1014.2
20260904143424 84 219 6.0 14.0 0.00 0.00 0.00 70 1014.1
20260904142924 84 240 7.0 14.0 0.00 0.00 0.00 72 1014.1
20260904142424 84 206 4.0 12.0 0.00 0.00 0.00 74 1014.2
20260904141924 83 233 6.0 12.0 0.00 0.00 0.00 74 1014.2
20260904140924 82 159 5.0 10.0 0.00 0.00 0.00 75 1014.2
20260904140423 81 227 4.0 10.0 0.00 0.00 0.00 77 1014.3
20260904135925 81 175 5.0 10.0 0.00 0.00 0.00 77 1014.3
20260904135424 80 189 4.0 9.0 0.00 0.00 0.00 79 1014.2
20260904134923 80 190 3.0 9.0 0.00 0.00 0.00 79 1014.1
20260904134423 79 162 5.0 9.0 0.00 0.00 0.00 81 1014.1
20260904133923 79 162 5.0 9.0 0.00 0.00 0.00 81 1014.1
20260904133422 78 154 4.0 9.0 0.00 0.00 0.00 82 1014.1
20260904132923 78 182 3.0 6.0 0.00 0.00 0.00 82 1014.1
20260904132423 78 169 4.0 6.0 0.00 0.00 0.00 83 1014.1
20260904130922 76 144 2.0 5.0 0.00 0.00 0.00 87 1013.9
20260904130424 75 192 3.0 5.0 0.00 0.00 0.00 88 1013.9
20260904125922 75 175 2.0 5.0 0.00 0.00 0.00 88 1013.9
20260904125422 74 183 1.0 4.0 0.00 0.00 0.00 91 1013.7
20260904124922 73 168 1.0 4.0 0.00 0.00 0.00 92 1013.7
20260904123921 71 176 2.0 4.0 0.00 0.00 0.00 96 1013.5
20260904123421 70 162 2.0 4.0 0.00 0.00 0.00 96 1013.5
20260904122921 69 188 0.0 3.0 0.00 0.00 0.00 96 1013.4
20260904121921 69 188 1.0 2.0 0.00 0.00 0.00 96 1013.4
20260904121421 69 188 1.0 3.0 0.00 0.00 0.00 96 1013.4
20260904120920 69 188 1.0 3.0 0.00 0.00 0.00 96 1013.3
20260904120420 69 173 0.0 3.0 0.00 0.00 0.00 96 1013.3
20260904115920 68 173 1.0 3.0 0.00 0.00 0.00 96 1013.3
20260904115420 68 173 1.0 4.0 0.00 0.00 0.00 96 1013.2
20260904113920 68 157 1.0 3.0 0.00 0.00 0.00 95 1013.2
20260904112920 69 157 1.0 3.0 0.00 0.00 0.00 95 1013.2
20260904112420 69 157 1.0 3.0 0.00 0.00 0.00 95 1013.2
20260904110920 69 141 2.0 5.0 0.00 0.00 0.00 95 1013.0
20260904110419 69 158 3.0 4.0 0.00 0.00 0.00 95 1013.0
20260904105919 69 179 2.0 4.0 0.00 0.00 0.00 95 1012.9
20260904105419 69 166 2.0 3.0 0.00 0.00 0.00 95 1012.9
20260904104919 69 166 1.0 3.0 0.00 0.00 0.00 95 1012.9
20260904104418 69 166 2.0 3.0 0.00 0.00 0.00 94 1013.0
20260904103919 69 166 2.0 3.0 0.00 0.00 0.00 94 1012.9
20260904102418 69 166 2.0 4.0 0.00 0.00 0.00 94 1012.8
20260904101918 69 166 2.0 4.0 0.00 0.00 0.00 95 1012.8
20260904101419 69 166 2.0 4.0 0.00 0.00 0.00 95 1012.7
20260904100418 68 166 2.0 3.0 0.00 0.00 0.00 95 1012.7
20260904095918 68 166 1.0 2.0 0.00 0.00 0.00 95 1012.7
20260904095417 68 166 0.0 1.0 0.00 0.00 0.00 95 1012.6
20260904094918 68 166 0.0 2.0 0.00 0.00 0.00 95 1012.6
20260904094417 68 166 1.0 2.0 0.00 0.00 0.00 95 1012.6
20260904093917 68 166 0.0 2.0 0.00 0.00 0.00 95 1012.5
20260904093417 68 166 1.0 3.0 0.00 0.00 0.00 95 1012.5
20260904092417 68 166 1.0 2.0 0.00 0.00 0.00 95 1012.3
20260904091917 68 166 1.0 3.0 0.00 0.00 0.00 95 1012.4
20260904091417 68 166 2.0 3.0 0.00 0.00 0.00 95 1012.3
20260904090917 68 166 0.0 0.0 0.00 0.00 0.00 95 1012.3
20260904090416 69 166 0.0 0.0 0.00 0.00 0.00 95 1012.2
20260904085917 69 166 0.0 0.0 0.00 0.00 0.00 95 1012.3
20260904085417 69 166 0.0 0.0 0.00 0.00 0.00 95 1012.3
20260904084916 69 166 0.0 0.0 0.00 0.00 0.00 95 1012.2
20260904083916 69 166 0.0 0.0 0.00 0.00 0.00 94 1012.0
20260904082916 69 166 0.0 0.0 0.00 0.00 0.00 94 1012.2
20260904080915 69 166 0.0 0.0 0.00 0.00 0.00 94 1012.0
20260904080416 68 166 0.0 0.0 0.00 0.00 0.00 94 1011.9
20260904075915 68 166 0.0 0.0 0.00 0.00 0.00 94 1011.9
20260904075416 69 166 0.0 0.0 0.00 0.00 0.00 94 1011.9
20260904074915 69 166 0.0 1.0 0.00 0.00 0.00 94 1012.0
20260904074414 69 166 0.0 1.0 0.00 0.00 0.00 94 1012.0
20260904073915 69 166 0.0 1.0 0.00 0.00 0.00 94 1012.0
20260904072915 69 166 0.0 0.0 0.00 0.00 0.00 94 1012.1
20260904071414 69 166 0.0 0.0 0.00 0.00 0.00 93 1012.0
20260904070914 69 166 0.0 0.0 0.00 0.00 0.00 93 1012.0
20260904070413 70 166 0.0 0.0 0.00 0.00 0.00 93 1012.1
20260904065913 70 166 0.0 1.0 0.00 0.00 0.00 93 1012.1
20260904065415 70 166 0.0 1.0 0.00 0.00 0.00 92 1012.0
20260904064413 70 166 0.0 0.0 0.00 0.00 0.00 93 1012.1
20260904063914 70 166 0.0 1.0 0.00 0.00 0.00 92 1012.0
20260904063413 70 166 0.0 1.0 0.00 0.00 0.00 92 1012.1
20260904062913 70 166 0.0 1.0 0.00 0.00 0.00 91 1012.1
20260904062413 70 166 0.0 1.0 0.00 0.00 0.00 91 1012.0
20260904061912 70 166 0.0 1.0 0.00 0.00 0.00 91 1012.1
20260904060912 70 166 0.0 2.0 0.00 0.00 0.00 91 1011.9
20260904060412 71 166 0.0 2.0 0.00 0.00 0.00 91 1012.0
20260904055912 71 166 0.0 2.0 0.00 0.00 0.00 91 1011.9
20260904055412 71 166 0.0 1.0 0.00 0.00 0.00 90 1012.0
20260904054912 71 166 0.0 2.0 0.00 0.00 0.00 90 1011.9
20260904054412 71 166 0.0 2.0 0.00 0.00 0.00 90 1011.9
20260904053912 71 166 1.0 2.0 0.00 0.00 0.00 91 1012.0
20260904053412 71 166 0.0 2.0 0.00 0.00 0.00 90 1011.9
20260904052911 72 166 0.0 2.0 0.00 0.00 0.00 90 1011.9
20260904052411 72 166 0.0 2.0 0.00 0.00 0.00 89 1011.9
20260904051911 72 166 0.0 1.0 0.00 0.00 0.00 89 1011.8
20260904051412 72 166 1.0 2.0 0.00 0.00 0.00 89 1011.8
20260904050911 72 166 1.0 2.0 0.00 0.00 0.00 89 1011.8
20260904050411 73 166 0.0 1.0 0.00 0.00 0.00 88 1011.7
20260904045410 73 166 0.0 1.0 0.00 0.00 0.00 88 1011.7
20260904044911 73 166 0.0 0.0 0.00 0.00 0.00 88 1011.7
20260904044410 73 166 0.0 1.0 0.00 0.00 0.00 87 1011.7
20260904043910 73 166 0.0 2.0 0.00 0.00 0.00 88 1011.7
20260904043410 73 166 0.0 2.0 0.00 0.00 0.00 88 1011.7
20260904042910 73 166 0.0 2.0 0.00 0.00 0.00 88 1011.8
20260904041910 73 166 1.0 2.0 0.00 0.00 0.00 88 1011.6
20260904040909 73 166 2.0 3.0 0.00 0.00 0.00 89 1011.5
20260904040408 73 166 1.0 3.0 0.00 0.00 0.00 88 1011.7
20260904035910 73 166 1.0 2.0 0.00 0.00 0.00 88 1011.6
20260904035409 73 166 1.0 1.0 0.00 0.00 0.00 88 1011.6
20260904034909 74 166 0.0 1.0 0.00 0.00 0.00 87 1011.7
20260904033909 74 166 0.0 0.0 0.00 0.00 0.00 86 1011.7
20260904033409 74 166 0.0 1.0 0.00 0.00 0.00 86 1011.7
20260904032908 74 166 0.0 1.0 0.00 0.00 0.00 86 1011.7
20260904031908 74 166 0.0 1.0 0.00 0.00 0.00 86 1011.7
20260904031408 74 166 0.0 1.0 0.00 0.00 0.00 85 1011.6
20260904030908 75 166 0.0 2.0 0.00 0.00 0.00 85 1011.6
20260904030408 75 166 1.0 2.0 0.00 0.00 0.00 85 1011.7
20260904025908 75 166 0.0 1.0 0.00 0.00 0.00 84 1011.6
20260904025408 75 166 0.0 1.0 0.00 0.00 0.00 84 1011.4
20260904024908 76 166 0.0 2.0 0.00 0.00 0.00 84 1011.4
20260904024408 76 166 0.0 2.0 0.00 0.00 0.00 83 1011.4
20260904023907 75 166 1.0 2.0 0.00 0.00 0.00 83 1011.3
20260904023407 76 166 0.0 3.0 0.00 0.00 0.00 83 1011.3
20260904022408 76 166 0.0 2.0 0.00 0.00 0.00 81 1011.1
20260904021908 77 166 1.0 2.0 0.00 0.00 0.00 80 1011.1
20260904021407 77 166 0.0 1.0 0.00 0.00 0.00 80 1011.1
20260904020907 78 166 0.0 2.0 0.00 0.00 0.00 80 1011.0
20260904015906 78 166 1.0 3.0 0.00 0.00 0.00 78 1010.8
20260904015406 78 164 1.0 4.0 0.00 0.00 0.00 77 1010.6
20260904014907 79 144 2.0 4.0 0.00 0.00 0.00 76 1010.5
20260904014407 78 176 1.0 3.0 0.00 0.00 0.00 77 1010.4
20260904013907 78 176 1.0 3.0 0.00 0.00 0.00 78 1010.4
20260904013407 79 176 1.0 3.0 0.00 0.00 0.00 77 1010.3
20260904012906 79 176 2.0 3.0 0.00 0.00 0.00 77 1010.3
20260904012406 79 176 1.0 3.0 0.00 0.00 0.00 77 1010.3
20260904011405 80 176 1.0 3.0 0.00 0.00 0.00 76 1010.2
20260904010406 80 178 2.0 3.0 0.00 0.00 0.00 76 1010.2
20260904005405 81 202 1.0 2.0 0.00 0.00 0.00 75 1010.2
20260904004905 82 202 0.0 2.0 0.00 0.00 0.00 73 1010.1
20260904004405 83 202 0.0 2.0 0.00 0.00 0.00 72 1010.1
20260904003905 84 202 0.0 2.0 0.00 0.00 0.00 69 1010.0
20260904003404 85 202 1.0 3.0 0.00 0.00 0.00 68 1010.0
20260904002905 86 202 1.0 4.0 0.00 0.00 0.00 66 1010.0
20260904002405 87 154 1.0 4.0 0.00 0.00 0.00 64 1010.0
20260904001905 87 159 2.0 3.0 0.00 0.00 0.00 63 1010.0
20260904001404 88 188 1.0 3.0 0.00 0.00 0.00 62 1009.9
20260904000904 90 173 1.0 5.0 0.00 0.00 0.00 57 1009.9
20260903235904 92 165 2.0 7.0 0.00 0.00 0.00 53 1009.9
20260903235402 93 169 3.0 7.0 0.00 0.00 0.00 52 1009.9
20260903234404 94 193 2.0 7.0 0.00 0.00 0.00 50 1009.9
20260903233904 94 161 2.0 7.0 0.00 0.00 0.00 49 1009.8
20260903233403 95 130 4.0 10.0 0.00 0.00 0.00 47 1009.9
20260903232903 95 182 5.0 10.0 0.00 0.00 0.00 47 1009.8
20260903232403 95 162 5.0 10.0 0.00 0.00 0.00 46 1009.7
20260903231903 95 147 3.0 14.0 0.00 0.00 0.00 46 1009.8
20260903231402 96 148 7.0 14.0 0.00 0.00 0.00 45 1009.8
20260903230902 96 217 6.0 18.0 0.00 0.00 0.00 44 1009.8
20260903230402 96 203 7.0 18.0 0.00 0.00 0.00 44 1009.8
20260903225902 96 128 8.0 13.0 0.00 0.00 0.00 45 1009.8
20260903225403 96 148 4.0 12.0 0.00 0.00 0.00 45 1009.7
20260903224901 96 151 6.0 13.0 0.00 0.00 0.00 44 1009.7
20260903224402 97 142 6.0 14.0 0.00 0.00 0.00 44 1009.7
20260903223402 97 159 8.0 17.0 0.00 0.00 0.00 43 1009.7
20260903222402 97 199 7.0 14.0 0.00 0.00 0.00 43 1009.8
20260903221901 97 212 6.0 16.0 0.00 0.00 0.00 44 1009.9
20260903221402 97 159 7.0 16.0 0.00 0.00 0.00 44 1009.8
20260903220902 97 166 8.0 15.0 0.00 0.00 0.00 43 1009.8
20260903220402 98 196 7.0 14.0 0.00 0.00 0.00 43 1009.8
20260903215902 97 182 9.0 13.0 0.00 0.00 0.00 44 1009.9
20260903214900 98 135 5.0 15.0 0.00 0.00 0.00 44 1010.0
20260903213900 98 213 7.0 15.0 0.00 0.00 0.00 42 1010.1
20260903213400 98 209 6.0 15.0 0.00 0.00 0.00 43 1010.2
20260903212900 98 231 5.0 13.0 0.00 0.00 0.00 45 1010.3
20260903212401 98 182 6.0 14.0 0.00 0.00 0.00 43 1010.4
20260903211900 98 224 6.0 14.0 0.00 0.00 0.00 43 1010.5
20260903211400 98 113 6.0 15.0 0.00 0.00 0.00 44 1010.5
20260903210400 98 207 6.0 16.0 0.00 0.00 0.00 45 1010.6
20260903205859 98 152 8.0 16.0 0.00 0.00 0.00 43 1010.5
20260903204859 98 206 11.0 18.0 0.00 0.00 0.00 43 1010.8
20260903204401 98 203 4.0 16.0 0.00 0.00 0.00 45 1010.8
20260903203859 98 159 10.0 16.0 0.00 0.00 0.00 43 1010.9
20260903202358 98 228 4.0 15.0 0.00 0.00 0.00 47 1010.9
20260903201858 97 183 5.0 16.0 0.00 0.00 0.00 45 1011.1
20260903201358 97 144 8.0 17.0 0.00 0.00 0.00 46 1011.0
20260903200858 97 190 7.0 17.0 0.00 0.00 0.00 46 1011.1
20260903200358 98 159 9.0 18.0 0.00 0.00 0.00 45 1011.1
20260903195858 98 128 6.0 18.0 0.00 0.00 0.00 47 1011.1
20260903195358 98 223 5.0 15.0 0.00 0.00 0.00 47 1011.1
20260903194858 98 202 6.0 16.0 0.00 0.00 0.00 47 1011.2
20260903194358 97 210 6.0 16.0 0.00 0.00 0.00 47 1011.2
20260903193858 97 154 6.0 16.0 0.00 0.00 0.00 48 1011.2
20260903193358 97 133 6.0 20.0 0.00 0.00 0.00 48 1011.3
20260903192858 97 200 12.0 20.0 0.00 0.00 0.00 48 1011.3
20260903192357 97 185 10.0 15.0 0.00 0.00 0.00 46 1011.4
20260903191857 96 164 7.0 14.0 0.00 0.00 0.00 48 1011.4
20260903191357 96 175 9.0 21.0 0.00 0.00 0.00 49 1011.4
20260903190857 96 179 9.0 21.0 0.00 0.00 0.00 48 1011.6
20260903190357 96 227 9.0 21.0 0.00 0.00 0.00 49 1011.6
20260903185857 97 152 7.0 17.0 0.00 0.00 0.00 47 1011.6
20260903185357 96 186 9.0 18.0 0.00 0.00 0.00 50 1011.7
20260903184356 96 138 11.0 19.0 0.00 0.00 0.00 49 1011.8
20260903183856 96 227 7.0 19.0 0.00 0.00 0.00 50 1011.9
20260903183356 96 192 5.0 16.0 0.00 0.00 0.00 51 1012.0
20260903182857 96 228 7.0 18.0 0.00 0.00 0.00 50 1012.0
20260903182358 95 227 11.0 18.0 0.00 0.00 0.00 50 1012.1
20260903180856 94 179 10.0 18.0 0.00 0.00 0.00 51 1012.3
20260903180355 94 178 9.0 17.0 0.00 0.00 0.00 52 1012.4
20260903175855 94 210 9.0 17.0 0.00 0.00 0.00 53 1012.4
20260903175355 94 130 10.0 16.0 0.00 0.00 0.00 53 1012.4
20260903174855 95 228 7.0 15.0 0.00 0.00 0.00 53 1012.4